Weather History for Toronto City ON, Ontario

Change the Weather History Date:

Monday, August 5, 2013

  Actual Average Record
Temperature  
Mean Temperature 64 °F -  
Max Temperature 74 °F - - ()
Min Temperature 55 °F - - ()
Growing Degree Days 14 (Base 50)    
Moisture  
Dew Point 50 °F    
Average Humidity 58    
Maximum Humidity 85    
Minimum Humidity 30    
Precipitation  
Precipitation 0.00 in - - ()
Sea Level Pressure  
Sea Level Pressure 30.07 in    
Wind  
Wind Speed - ()    
Max Wind Speed -    
Max Gust Speed -    
T = Trace of Precipitation, MM = Missing Value Source: Averaged Metar Reports

Daily Weather History Graph

Daily Weather History Graph

Search for Another Location

Airport:

Trip Planner

Search our weather history database for the weather conditions in past years. The results will help you decide how hot, cold, wet, or windy it might be!

Date:

Astronomy

Aug. 05, 2013 Rise Set
Actual Time 6:11 AM EDT 8:35 PM EDT
Civil Twilight 5:39 AM EDT 9:07 PM EDT
Nautical Twilight 4:58 AM EDT 9:47 PM EDT
Astronomical Twilight 4:13 AM EDT 10:31 PM EDT
Moon 5:05 AM EDT (8/5) 7:33 PM EDT (8/5)
Length of Visible Light 15h 28m
Length of Day
14h 23m
Waning Crescent, 1% of the Moon is Illuminated
Aug 5
Waning Crescent
Aug 6
New
Aug 14
First Quarter
Aug 20
Full
Aug 28
Last Quarter

Hourly Weather History & Observations

Time (EDT) Temp. Dew Point Humidity Pressure Visibility Wind Dir Wind Speed Gust Speed Precip Events Conditions
12:00 AM 60.3 °F 47.5 °F 63% 30.09 in - North - - N/A   Unknown
1:00 AM 59.5 °F 49.3 °F 69% 30.09 in - North - - N/A   Unknown
2:00 AM 58 °F 49 °F 65% 30.09 in - Calm Calm - -  
2:00 AM 58.1 °F 49.5 °F 73% 30.09 in - North - - N/A   Unknown
3:00 AM 56.8 °F 50.2 °F 78% 30.09 in - North - - N/A   Unknown
4:00 AM 56.8 °F 50.7 °F 80% 30.08 in - North - - N/A   Unknown
5:00 AM 56.1 °F 50.7 °F 82% 30.09 in - North - - N/A   Unknown
6:00 AM 55.2 °F 50.7 °F 85% 30.10 in - North - - N/A   Unknown
7:00 AM 56.8 °F 50.5 °F 79% 30.11 in - North - - N/A   Unknown
8:00 AM 61 °F 51 °F 62% 30.11 in - Calm Calm - -  
8:00 AM 60.6 °F 51.3 °F 71% 30.11 in - North - - N/A   Unknown
9:00 AM 65.5 °F 52.5 °F 63% 30.12 in - North - - N/A   Unknown
10:00 AM 68.7 °F 49.6 °F 51% 30.11 in - North - - N/A   Unknown
11:00 AM 70.9 °F 51.1 °F 49% 30.10 in - North - - N/A   Unknown
12:00 PM 71.4 °F 51.8 °F 50% 30.10 in - North - - N/A   Unknown
1:00 PM 71.4 °F 51.4 °F 49% 30.08 in - North - - N/A   Unknown
2:00 PM 73 °F 48 °F 30% 30.07 in - Calm Calm - -  
2:00 PM 72.7 °F 47.8 °F 41% 30.07 in - North - - N/A   Unknown
3:00 PM 73.2 °F 47.3 °F 40% 30.06 in - North - - N/A   Unknown
4:00 PM 73.8 °F 45.0 °F 36% 30.05 in - North - - N/A   Unknown
5:00 PM 73.4 °F 48.0 °F 41% 30.04 in - North - - N/A   Unknown
6:00 PM 71.2 °F 50.4 °F 48% 30.04 in - North - - N/A   Unknown
7:00 PM 70.0 °F 50.5 °F 50% 30.03 in - North - - N/A   Unknown
8:00 PM 69 °F 49 °F 37% 30.03 in - Calm Calm - -  
8:00 PM 69.1 °F 48.7 °F 48% 30.03 in - North - - N/A   Unknown
9:00 PM 67.1 °F 50.0 °F 54% 30.03 in - North - - N/A   Unknown
10:00 PM 65.8 °F 50.9 °F 58% 30.02 in - North - - N/A   Unknown
11:00 PM 65.3 °F 53.1 °F 65% 30.01 in - North - - N/A   Unknown